User: anonymous   Login
Location: Fort Wayne
(41.1310°N, 85.1290°W)
Time: 19:13:26
(UTC-05:00)
Language:

SL-08 RB Rocket - Orbit

View from above orbital plane
View from above orbital plane
View from above satellite
View from above satellite

Ground track
Ground track

The orbit data is extracted from the following two-line orbital elements,

1 26387U 00033D   15062.25687718  .00001043  00000-0  19061-3 0  9998
2 26387 098.0743 131.8076 0027966 112.5551 288.6037 14.67739082785084
Epoch (UTC): 03 March 2015 06:09:54
Eccentricity: 0.0027966
inclination: 98.0743°
perigee height: 648 km
apogee height: 688 km
right ascension of ascending node: 131.8076°
argument of perigee: 112.5551°
revolutions per day: 14.67739082
mean anomaly at epoch: 288.6037°
orbit number at epoch: 78508

The dashed part of the orbit path shows where the satellite is in the earth's shadow,  

DLR